Location: Peach Mountain Observatory
(42.3967°N, 83.9367°W)
Time: 05:36:05
(UTC-05:00)

Explorer 7 - Pass Details

Date: 02 February 2020
Orbit: 485 x 679 km, 50.3° (Epoch: 23 February)

Event Time Altitude Azimuth Distance (km) Brightness Sun altitude
Rises 19:38:48 0° 227° (SW) 2,692 11.2 -20.2°
Reaches altitude 10° 19:41:06 10° 223° (SW) 1,772 10.0 -20.6°
Enters shadow 19:44:52 58° 157° (SSE) 599 6.8 -21.3°
